sat.trackr.live / text

‹ back to catalog

KUIPER-00459

NORAD 68872 · 2026-095J

PAYLOAD ACTIVE UNKNOWN

§ Identity

Operator
Country
US
Launch date
2026-04-28
Launch site
AFETR
Launch vehicle
Mass (kg)
RCS (m²)

External: N2YO · Heavens-Above · Gunter

§ Orbital elements

Epoch: 2026-09-20T00:47:00.191040Z

Period
97.30 min
Inclination
51.9025°
Eccentricity
0.0000803
Mean motion
14.79925802 rev/d
Perigee alt
629.0 km
Apogee alt
630.1 km
Semi-major
7,007.7 km
B*
-6.6463e-5
RAAN
171.3215°
Arg perigee
91.0078°
Mean anomaly
269.0976°
Rev number
2,193

§ Raw data

KUIPER-004591 68872U 26095J   26263.03264110 -.00000728  00000+0 -66463-4 0  99962 68872  51.9025 171.3215 0000803  91.0078 269.0976 14.79925802 21932

JSON: /api/v1/satellites/68872 · /tle

For live sub-satellite position, see the globe view (requires WebGL).

§ Visibility from observer

Set your observer location to see the next 7 days of passes ≥ 10°. The values pass through the URL so the page stays shareable.

No JS? Fill the form by hand. The geolocation button needs JavaScript.